Miscellaneous Local Product
Issued by NWS Hastings, NE

Home | Current Version | Previous Version | Graphics & Text | Print | Product List | Glossary On
Versions: 1 2 3 4 5 6 7 8 9 10 11 12 13 14 15 16 17 18 19 20 21 22 23 24 25 26 27 28 29 30 31 32 33 34 35 36 37 38 39 40 41 42 43 44 45 46 47 48 49 50
149
AXUS43 KGID 252002
MISGRI

GID CWA HOURLY WEATHER ROUNDUP
NATIONAL WEATHER SERVICE HASTINGS NE
300 PM CDT SUN JUN 25 2017

NOTE: "FAIR" INDICATES FEW OR NO CLOUDS BELOW 12,000 FEET WITH NO
SIGNIFICANT WEATHER AND/OR OBSTRUCTIONS TO VISIBILITY.

...SOUTH CENTRAL NEBRASKA...

CITY           SKY/WX    TMP DP  RH WIND       PRES   REMARKS
GRAND ISLAND   SUNNY     75  38  26 CALM      30.30F
HASTINGS       SUNNY     73  38  27 NW3       30.31F
KEARNEY        SUNNY     73  37  27 SE6       30.32F
ORD            SUNNY     76  29  17 VRB3      30.27F
YORK           SUNNY     73  39  29 CALM      30.29F
AURORA         SUNNY     73  38  28 CALM      30.30F
LEXINGTON      SUNNY     74  40  28 S13       30.31F
HOLDREGE       SUNNY     70  40  34 SE9       30.32F
HEBRON         PTSUNNY   73  41  31 S3        30.31F

...NEBRASKA PANHANDLE...

CITY           SKY/WX    TMP DP  RH WIND       PRES   REMARKS
CHADRON        MOSUNNY   76  39  26 SW3       30.25F
ALLIANCE       SUNNY     76  38  25 S9        30.28F
SCOTTSBLUFF    SUNNY     77  43  29 SE8G20    30.29F
SIDNEY         SUNNY     72  44  36 S13G20    30.34F

...WESTERN AND NORTH CENTRAL NEBRASKA...

CITY           SKY/WX    TMP DP  RH WIND       PRES   REMARKS
VALENTINE      MOSUNNY   77  29  17 E3        30.27F
AINSWORTH      SUNNY     73  37  26 W7        30.29F
ONEILL         SUNNY     73  36  25 W5        30.29F
BROKEN BOW     SUNNY     75  39  27 CALM      30.29F
IMPERIAL       PTSUNNY   67  46  47 S12       30.33S
NORTH PLATTE   SUNNY     76  45  33 SE8       30.29F
MCCOOK         PTSUNNY   70  45  40 SE9       30.33R

...EASTERN NEBRASKA...

CITY           SKY/WX    TMP DP  RH WIND       PRES   REMARKS
NORFOLK        SUNNY     73  41  31 VRB6      30.27F
SO SIOUX CITY  SUNNY     73  42  32 NW10      30.25F
TEKAMAH        SUNNY     76  38  25 N12G23    30.25F
COLUMBUS       SUNNY     74  41  30 CALM      30.28F
ALBION         SUNNY     74  32  21 N6        30.29F
OMAHA EPPLEY   MOSUNNY   75  42  30 N12       30.26F
OFFUTT AFB     SUNNY     73  44  35 W9G16     30.26F
MILLARD        SUNNY     74  45  35 NW5       30.27F
LINCOLN        SUNNY     77  40  26 NW12G17   30.28F
NEBRASKA CITY  MOSUNNY   73  46  38 NW8       30.28F
BEATRICE       CLOUDY    75  47  37 SW6       30.29F
FALLS CITY     PTSUNNY   73  48  41 NW8       30.27F

...NORTHERN KANSAS...

CITY           SKY/WX    TMP DP  RH WIND       PRES   REMARKS
GOODLAND       CLOUDY    61  57  87 E18       30.33S
HILL CITY      CLOUDY    63  56  78 E10       30.34F
NORTON         CLEAR     73  43  33 SE13      30.31F
PHILLIPSBURG   SUNNY     72  45  37 E13       30.32F
SMITH CENTER   CLOUDY    61  46  59 E9        30.34F
HAYS           LGT RAIN  59  56  89 E10       30.33F
RUSSELL        LGT RAIN  60  56  86 E12       30.31F
CONCORDIA      LGT RAIN  59  53  80 NE7       30.34F
SALINA         LGT RAIN  69  55  60 N12       30.34R
TOPEKA         CLOUDY    73  53  49 NW6       30.30R



USA.gov is the U.S. government's official web portal to all federal, state and local government web resources and services.